TimeEDT,TemperatureF,Dew PointF,Humidity,Sea Level PressureIn,VisibilityMPH,Wind Direction,Wind SpeedMPH,Gust SpeedMPH,PrecipitationIn,Events,Conditions,WindDirDegrees,DateUTC
12:53 AM,55.0,52.0,89,30.17,10.0,Calm,Calm,-,N/A,,Clear,0,2013-04-24 04:53:00
1:53 AM,55.0,52.0,89,30.17,10.0,Calm,Calm,-,N/A,,Clear,0,2013-04-24 05:53:00
2:20 AM,55.4,51.8,88,30.16,10.0,Calm,Calm,-,N/A,,Partly Cloudy,0,2013-04-24 06:20:00
2:38 AM,53.6,51.8,94,30.16,10.0,Calm,Calm,-,N/A,,Mostly Cloudy,0,2013-04-24 06:38:00
2:53 AM,55.0,53.1,93,30.15,10.0,Calm,Calm,-,N/A,,Overcast,0,2013-04-24 06:53:00
3:53 AM,55.9,54.0,93,30.15,9.0,SW,6.9,-,N/A,,Overcast,220,2013-04-24 07:53:00
4:53 AM,57.0,54.0,89,30.16,9.0,Calm,Calm,-,N/A,,Overcast,0,2013-04-24 08:53:00
6:53 AM,57.0,54.0,89,30.16,10.0,SSW,3.5,-,N/A,,Overcast,200,2013-04-24 10:53:00
7:53 AM,57.0,54.0,89,30.18,10.0,Calm,Calm,-,N/A,,Mostly Cloudy,0,2013-04-24 11:53:00
8:06 AM,57.2,53.6,88,30.18,10.0,Calm,Calm,-,N/A,,Scattered Clouds,0,2013-04-24 12:06:00
8:53 AM,60.1,54.0,80,30.18,10.0,SW,4.6,-,N/A,,Clear,220,2013-04-24 12:53:00
9:53 AM,64.9,54.0,68,30.17,10.0,SSW,6.9,-,N/A,,Clear,200,2013-04-24 13:53:00
10:53 AM,70.0,55.0,59,30.16,10.0,South,8.1,-,N/A,,Clear,190,2013-04-24 14:53:00
11:53 AM,73.0,55.0,53,30.14,10.0,South,6.9,-,N/A,,Clear,180,2013-04-24 15:53:00
12:53 PM,75.9,53.1,45,30.14,10.0,SW,10.4,17.3,N/A,,Partly Cloudy,230,2013-04-24 16:53:00
1:53 PM,78.1,54.0,43,30.12,10.0,WSW,8.1,-,N/A,,Mostly Cloudy,240,2013-04-24 17:53:00
2:53 PM,80.1,53.1,39,30.10,10.0,SW,13.8,20.7,N/A,,Mostly Cloudy,220,2013-04-24 18:53:00
3:53 PM,79.0,53.1,40,30.08,10.0,SW,10.4,-,N/A,,Scattered Clouds,230,2013-04-24 19:53:00
4:53 PM,79.0,52.0,39,30.05,10.0,SW,8.1,-,N/A,,Clear,230,2013-04-24 20:53:00
5:53 PM,78.1,53.1,42,30.05,10.0,SW,6.9,16.1,N/A,,Clear,220,2013-04-24 21:53:00
6:53 PM,77.0,54.0,45,30.06,10.0,SW,3.5,-,N/A,,Partly Cloudy,220,2013-04-24 22:53:00
7:53 PM,75.0,55.0,50,30.06,10.0,SW,5.8,-,N/A,,Clear,220,2013-04-24 23:53:00
8:53 PM,73.0,55.0,53,30.07,10.0,SSW,3.5,-,N/A,,Scattered Clouds,210,2013-04-25 00:53:00
9:53 PM,71.1,55.9,59,30.08,10.0,Calm,Calm,-,N/A,,Overcast,0,2013-04-25 01:53:00
10:53 PM,71.1,55.9,59,30.09,10.0,Calm,Calm,-,N/A,,Mostly Cloudy,0,2013-04-25 02:53:00
11:53 PM,69.1,57.9,68,30.09,10.0,Calm,Calm,-,N/A,,Overcast,0,2013-04-25 03:53:00